Weather History for Imperial, NE

Change the Weather History Date:

Saturday, August 16, 2014

  Actual Average Record
Temperature  
Mean Temperature 78 °F 74 °F  
Max Temperature 94 °F 88 °F 105 °F (1937)
Min Temperature 62 °F 60 °F 50 °F (1897)
Degree Days  
Heating Degree Days 0 0  
Month to date heating degree days 0 0  
Since 1 June heating degree days 40 36  
Cooling Degree Days 13 9  
Month to date cooling degree days 181 167  
Year to date cooling degree days 718 751  
Since 1 June cooling degree days 657 707  
Growing Degree Days 28 (Base 50)    
Moisture  
Dew Point 60 °F    
Average Humidity 59    
Maximum Humidity 90    
Minimum Humidity 28    
Precipitation  
Precipitation 0.00 in 0.08 in 1.43 in (2010)
Sea Level Pressure  
Sea Level Pressure 29.89 in    
Wind  
Wind Speed 6 mph (NNE)    
Max Wind Speed 13 mph    
Max Gust Speed 17 mph    
Visibility 10 miles    
Events      
T = Trace of Precipitation, MM = Missing Value Source: NWS Daily Summary

Daily Weather History Graph

Daily Weather History Graph

Search for Another Location

Airport:

Trip Planner

Search our weather history database for the weather conditions in past years. The results will help you decide how hot, cold, wet, or windy it might be!

Date:

Astronomy

Aug. 16, 2014 Rise Set
Actual Time 5:58 AM MDT 7:42 PM MDT
Civil Twilight 5:28 AM MDT 8:11 PM MDT
Nautical Twilight 4:53 AM MDT 8:46 PM MDT
Astronomical Twilight 4:15 AM MDT 9:24 PM MDT
Moon 11:25 PM MDT (8/16) 12:48 PM MDT (8/16)
Length of Visible Light 14h 42m
Length of Day
13h 44m
Waning Gibbous, 58% of the Moon is Illuminated
Aug 16
Waning Gibbous
Aug 17
Last Quarter
Aug 25
New
Sep 2
First Quarter
Sep 8
Full

Hourly Weather History & Observations

Time (MDT) Temp. Heat Index Dew Point Humidity Pressure Visibility Wind Dir Wind Speed Gust Speed Precip Events Conditions
12:53 AM 69.1 °F - 60.1 °F 73% 29.85 in 10.0 mi Calm Calm - N/A   Clear
1:53 AM 66.0 °F - 60.1 °F 81% 29.85 in 10.0 mi North 3.5 mph - N/A   Clear
2:53 AM 64.0 °F - 59.0 °F 84% 29.85 in 10.0 mi West 4.6 mph - N/A   Clear
3:53 AM 63.0 °F - 59.0 °F 87% 29.86 in 10.0 mi North 4.6 mph - N/A   Clear
4:53 AM 64.0 °F - 59.0 °F 84% 29.86 in 10.0 mi North 5.8 mph - N/A   Clear
5:53 AM 63.0 °F - 59.0 °F 87% 29.89 in 10.0 mi NNW 4.6 mph - N/A   Clear
6:53 AM 66.9 °F - 59.0 °F 76% 29.91 in 10.0 mi NNW 3.5 mph - N/A   Clear
7:53 AM 71.1 °F - 62.1 °F 73% 29.92 in 10.0 mi North 4.6 mph - N/A   Clear
8:53 AM 77.0 °F - 63.0 °F 62% 29.92 in 10.0 mi North 5.8 mph - N/A   Clear
9:53 AM 82.9 °F 83.7 °F 62.1 °F 49% 29.92 in 10.0 mi ENE 5.8 mph - N/A   Clear
10:53 AM 87.1 °F 87.0 °F 61.0 °F 41% 29.92 in 10.0 mi Variable 4.6 mph - N/A   Clear
11:53 AM 88.0 °F 88.7 °F 63.0 °F 43% 29.92 in 10.0 mi North 6.9 mph - N/A   Clear
12:53 PM 89.1 °F 89.0 °F 61.0 °F 39% 29.91 in 10.0 mi Variable 4.6 mph - N/A   Clear
1:53 PM 91.0 °F 90.0 °F 57.9 °F 33% 29.89 in 10.0 mi North 10.4 mph - N/A   Clear
2:53 PM 91.9 °F 90.6 °F 57.0 °F 31% 29.88 in 10.0 mi North 9.2 mph - N/A   Clear
3:53 PM 93.0 °F 91.4 °F 55.9 °F 29% 29.87 in 10.0 mi North 9.2 mph - N/A   Clear
4:53 PM 93.9 °F 92.6 °F 57.0 °F 29% 29.86 in 10.0 mi North 8.1 mph - N/A   Clear
5:53 PM 91.9 °F 90.6 °F 57.0 °F 31% 29.86 in 10.0 mi NE 10.4 mph - N/A   Clear
6:53 PM 88.0 °F 87.9 °F 61.0 °F 40% 29.87 in 10.0 mi ENE 9.2 mph - N/A   Clear
7:53 PM 80.1 °F 81.7 °F 64.0 °F 58% 29.89 in 10.0 mi NE 6.9 mph - N/A   Clear
8:53 PM 75.9 °F - 64.0 °F 67% 29.91 in 10.0 mi ENE 5.8 mph - N/A   Mostly Cloudy
9:53 PM 75.9 °F - 61.0 °F 60% 29.90 in 10.0 mi East 10.4 mph - N/A   Clear
10:53 PM 73.9 °F - 61.0 °F 64% 29.91 in 10.0 mi SSE 8.1 mph - N/A   Clear
11:53 PM 72.0 °F - 60.1 °F 66% 29.92 in 10.0 mi ESE 3.5 mph - N/A   Clear